It's Friday,
December 13th, 2019
User not logged in
[Run Race Header Image][Run Race logo]
  
Race webcasting is attempted by race directors and their support staff. Please remember that conditions under which they're working may make it difficult to post timely webcast updates... your interest and patience is appreciated!
Race Information
Race Name:2nd Annual Indiana Trail 100
Location:Albion
State:Indiana, United States
 button: button: Webcast Autoplay
Event Information
Name of Event:100 Mile Trail
Distance:100 Miles
Started Date/Time:Saturday April 26th, 2014, 5:59:34.15 am
button: Assign Numbers  
Checkpoint:Start
Distance:0 Miles
Gun Start Time:Saturday April 26th, 2014 5:59:34.15 am
Calculate Chip Start Time:< not set >
Y or N... Calculate splits based upon participant chip start time?
Allow Early Chip Start Time:< not set >
Y or N... Allow participants a chip start time prior to gun start?
Pos Race
Number
NameAgeSexTime
1182Craig Wheeler52M0.36 secondsSat Apr 26th, 2014 5:59:34.51 am
226Jessica Campbell21F1.27 secondsSat Apr 26th, 2014 5:59:35.42 am
3177Eric Fritz46M1.95 secondsSat Apr 26th, 2014 5:59:36.1 am
445Nicholas Eiben19M2.02 secondsSat Apr 26th, 2014 5:59:36.17 am
534Vincent Corona30M2.28 secondsSat Apr 26th, 2014 5:59:36.43 am
6151Jen Skelly34F2.41 secondsSat Apr 26th, 2014 5:59:36.56 am
7133Richard Plezia55M2.68 secondsSat Apr 26th, 2014 5:59:36.83 am
8158Paul Stofko38M2.97 secondsSat Apr 26th, 2014 5:59:37.12 am
9141Shan Riggs35M3.01 secondsSat Apr 26th, 2014 5:59:37.16 am
10140Kirk Ridenour54M3.33 secondsSat Apr 26th, 2014 5:59:37.48 am
11149Todd Siebert32M3.5 secondsSat Apr 26th, 2014 5:59:37.65 am
1294Kate Lock44F4.64 secondsSat Apr 26th, 2014 5:59:38.79 am
1338James Davidson51M4.7 secondsSat Apr 26th, 2014 5:59:38.85 am
149Crystal Barton38F5.15 secondsSat Apr 26th, 2014 5:59:39.3 am
15166Jim Trout44M5.46 secondsSat Apr 26th, 2014 5:59:39.61 am
1612Richard Barton61M5.49 secondsSat Apr 26th, 2014 5:59:39.64 am
17130Alfredo ''Moose'' Pedro45M6.2 secondsSat Apr 26th, 2014 5:59:40.35 am
1839Nathan DeWall34M6.65 secondsSat Apr 26th, 2014 5:59:40.8 am
1942Michael Dowdell38M7.1 secondsSat Apr 26th, 2014 5:59:41.25 am
2082Juan Juarez42M7.31 secondsSat Apr 26th, 2014 5:59:41.46 am
2124todd brown45M7.56 secondsSat Apr 26th, 2014 5:59:41.71 am
22113SIAMAK MOSTOUFI39M7.95 secondsSat Apr 26th, 2014 5:59:42.1 am
23148Travis Shields37M8.06 secondsSat Apr 26th, 2014 5:59:42.21 am
24115Carolynn Nauta32F8.66 secondsSat Apr 26th, 2014 5:59:42.81 am
2560Garrison Grove29M8.89 secondsSat Apr 26th, 2014 5:59:43.04 am
2661Graham Grove36M9.02 secondsSat Apr 26th, 2014 5:59:43.17 am
27112Frank Morris32M9.2 secondsSat Apr 26th, 2014 5:59:43.35 am
2886John Klarquist49M9.55 secondsSat Apr 26th, 2014 5:59:43.7 am
2944Tanya Eggert44F10.05 secondsSat Apr 26th, 2014 5:59:44.2 am
30154Mike Smith56M10.18 secondsSat Apr 26th, 2014 5:59:44.33 am
31163Derek Tinnin46M10.63 secondsSat Apr 26th, 2014 5:59:44.78 am
3217Andrew Borst43M11.05 secondsSat Apr 26th, 2014 5:59:45.2 am
3399Daniel Maddox38M11.2 secondsSat Apr 26th, 2014 5:59:45.35 am
34129Ben Pearce19M11.86 secondsSat Apr 26th, 2014 5:59:46.01 am
3556Helen Garen49F12.48 secondsSat Apr 26th, 2014 5:59:46.63 am
3641Paul Dott31M13.15 secondsSat Apr 26th, 2014 5:59:47.3 am
3749Ana Esqueda39F13.82 secondsSat Apr 26th, 2014 5:59:47.97 am
3872Rich Henderson58M14.16 secondsSat Apr 26th, 2014 5:59:48.31 am
3998Kenneth Lynn42M14.48 secondsSat Apr 26th, 2014 5:59:48.63 am
40146Rob Schultz47M14.8 secondsSat Apr 26th, 2014 5:59:48.95 am
4183Chris Junken35M15.38 secondsSat Apr 26th, 2014 5:59:49.53 am
42106Jeremy Miller44M15.89 secondsSat Apr 26th, 2014 5:59:50.04 am
43161Mika Thewes22F16.29 secondsSat Apr 26th, 2014 5:59:50.44 am
44128Jose Palmerin23M16.47 secondsSat Apr 26th, 2014 5:59:50.62 am
4557Mark Gavorski48M16.87 secondsSat Apr 26th, 2014 5:59:51.02 am
46169Chris Walker34M17.3 secondsSat Apr 26th, 2014 5:59:51.45 am
47162Mark Thill38M17.5 secondsSat Apr 26th, 2014 5:59:51.65 am
4854Tom Fifer51M18.03 secondsSat Apr 26th, 2014 5:59:52.18 am
4921Bob Brashear55M18.42 secondsSat Apr 26th, 2014 5:59:52.57 am
50127Daniel Paige34M19.06 secondsSat Apr 26th, 2014 5:59:53.21 am
51137Jamie Quarandillo40F19.43 secondsSat Apr 26th, 2014 5:59:53.58 am
5215sandra bocchicchio41F19.72 secondsSat Apr 26th, 2014 5:59:53.87 am
53104David Mentjes44M19.82 secondsSat Apr 26th, 2014 5:59:53.97 am
5414John Bertram51M20.36 secondsSat Apr 26th, 2014 5:59:54.51 am
5568Shawn Hawk49M20.59 secondsSat Apr 26th, 2014 5:59:54.74 am
56111James Cooper44M21.15 secondsSat Apr 26th, 2014 5:59:55.3 am
5750Linda Keuneke50F21.72 secondsSat Apr 26th, 2014 5:59:55.87 am
5874Alex "ACE" Honigford33M22.27 secondsSat Apr 26th, 2014 5:59:56.42 am
595LEE ANDERSON56M22.39 secondsSat Apr 26th, 2014 5:59:56.54 am
60159Steve Sunbury44M22.65 secondsSat Apr 26th, 2014 5:59:56.8 am
61145James Schroeder37M22.67 secondsSat Apr 26th, 2014 5:59:56.82 am
627REGINA ARVIN41F23.18 secondsSat Apr 26th, 2014 5:59:57.33 am
6353Ramon Ferrer Jr34M23.54 secondsSat Apr 26th, 2014 5:59:57.69 am
64183Anastasia Andrychowski34F23.77 secondsSat Apr 26th, 2014 5:59:57.92 am
65176Stan Zygmunt51M24.04 secondsSat Apr 26th, 2014 5:59:58.19 am
66178Joe Cuthbertson39M24.5 secondsSat Apr 26th, 2014 5:59:58.65 am
6718James Bowers36M24.51 secondsSat Apr 26th, 2014 5:59:58.66 am
6891Bill Kulwicki55M24.9 secondsSat Apr 26th, 2014 5:59:59.05 am
69175David Zent38M25.44 secondsSat Apr 26th, 2014 5:59:59.59 am
7084Larry Kelley47M26.68 secondsSat Apr 26th, 2014 6:00:00.83 am
7152Jamie Farley35M26.78 secondsSat Apr 26th, 2014 6:00:00.93 am
72125Jeff Oliver40M28.68 secondsSat Apr 26th, 2014 6:00:02.83 am
7330Katie Cloninger36F29.22 secondsSat Apr 26th, 2014 6:00:03.37 am
74174Randall Yost55M29.54 secondsSat Apr 26th, 2014 6:00:03.69 am
7551Dan Fabish18M29.61 secondsSat Apr 26th, 2014 6:00:03.76 am
7620Erin Brady42F29.71 secondsSat Apr 26th, 2014 6:00:03.86 am
77124Ethan Olds24M30.06 secondsSat Apr 26th, 2014 6:00:04.21 am
78142Steve Riportella48M30.43 secondsSat Apr 26th, 2014 6:00:04.58 am
79171Marci Wease37F30.52 secondsSat Apr 26th, 2014 6:00:04.67 am
8016toni bohannon46F30.72 secondsSat Apr 26th, 2014 6:00:04.87 am
8148Karen Erba44F31.5 secondsSat Apr 26th, 2014 6:00:05.65 am
8233Aaron Conner41M32.41 secondsSat Apr 26th, 2014 6:00:06.56 am
8362Martin Guthrie47M32.85 secondsSat Apr 26th, 2014 6:00:07 am
8497Suann Lundsberg38F33.22 secondsSat Apr 26th, 2014 6:00:07.37 am
8579David E. Jackson36M33.7 secondsSat Apr 26th, 2014 6:00:07.85 am
86108Joshua Mock32M34.68 secondsSat Apr 26th, 2014 6:00:08.83 am
87134dave potter49M34.98 secondsSat Apr 26th, 2014 6:00:09.13 am
88135Rob Putz48M35.6 secondsSat Apr 26th, 2014 6:00:09.75 am
896Ric Angara43M36.23 secondsSat Apr 26th, 2014 6:00:10.38 am
90181Rene Samano28M36.59 secondsSat Apr 26th, 2014 6:00:10.74 am
9169Kent Heck52M37.51 secondsSat Apr 26th, 2014 6:00:11.66 am
9273Jeff Hogan45M38.06 secondsSat Apr 26th, 2014 6:00:12.21 am
9366Dick Canterbury66M38.51 secondsSat Apr 26th, 2014 6:00:12.66 am
9490Steven Kuhl62M39.55 secondsSat Apr 26th, 2014 6:00:13.7 am
95126Julie Pagel29F40.26 secondsSat Apr 26th, 2014 6:00:14.41 am
96164Dylan Hammons41M40.64 secondsSat Apr 26th, 2014 6:00:14.79 am
9664Cindylee Torres54F40.64 secondsSat Apr 26th, 2014 6:00:14.79 am
98165Judd Trayling40M40.77 secondsSat Apr 26th, 2014 6:00:14.92 am
99119David Nichols53M41.18 secondsSat Apr 26th, 2014 6:00:15.33 am
10055Zach Franklin31M41.52 secondsSat Apr 26th, 2014 6:00:15.67 am
10125Aaron Butler32M41.6 secondsSat Apr 26th, 2014 6:00:15.75 am
102170ben wallace57M42 secondsSat Apr 26th, 2014 6:00:16.15 am
103180Michael Linkogel43M42.42 secondsSat Apr 26th, 2014 6:00:16.57 am
10446Mike Else45M42.78 secondsSat Apr 26th, 2014 6:00:16.93 am
10578Lauren Idzik43F43.15 secondsSat Apr 26th, 2014 6:00:17.3 am
10658Gary Gentry48M44.42 secondsSat Apr 26th, 2014 6:00:18.57 am
10781MELISSA JOYCE-HASSAN49F44.48 secondsSat Apr 26th, 2014 6:00:18.63 am
10893John Leighton53M45.35 secondsSat Apr 26th, 2014 6:00:19.5 am
10935Joe Cortez49M46.33 secondsSat Apr 26th, 2014 6:00:20.48 am
110168Jesse Vasquez38M46.44 secondsSat Apr 26th, 2014 6:00:20.59 am
11140Noe j Dominguez45M46.59 secondsSat Apr 26th, 2014 6:00:20.74 am
112123Reggie O'HARA45M47.57 secondsSat Apr 26th, 2014 6:00:21.72 am
1122Kurt Adams35M47.57 secondsSat Apr 26th, 2014 6:00:21.72 am
114138Frank Rampton57M48.54 secondsSat Apr 26th, 2014 6:00:22.69 am
115152Dean Smith41M48.68 secondsSat Apr 26th, 2014 6:00:22.83 am
116167Ali Turfe50M48.76 secondsSat Apr 26th, 2014 6:00:22.91 am
117120Caleb Nolen28M49.34 secondsSat Apr 26th, 2014 6:00:23.49 am
118102Rick McClain52M51.87 secondsSat Apr 26th, 2014 6:00:26.02 am
119150Robert Siscoe59M53.06 secondsSat Apr 26th, 2014 6:00:27.21 am
12013Richard Benjamin58M53.41 secondsSat Apr 26th, 2014 6:00:27.56 am
12128Tony Cesario50M54.56 secondsSat Apr 26th, 2014 6:00:28.71 am
1224Jonathon Amlung44M55.03 secondsSat Apr 26th, 2014 6:00:29.18 am
123131Scott Peterson38M55.47 secondsSat Apr 26th, 2014 6:00:29.62 am
12463Jerret Halter32M55.72 secondsSat Apr 26th, 2014 6:00:29.87 am
125103Chris McMahon54M55.78 secondsSat Apr 26th, 2014 6:00:29.93 am
12631Mark Coates33M56.66 secondsSat Apr 26th, 2014 6:00:30.81 am
127179Elizabeth Hermans31F57.81 secondsSat Apr 26th, 2014 6:00:31.96 am
12876Scott Hudson46M58.05 secondsSat Apr 26th, 2014 6:00:32.2 am
12987Ryan "Stormy" Knight37M59.48 secondsSat Apr 26th, 2014 6:00:33.63 am
130184Kinga Kokoc35F1:00.23Sat Apr 26th, 2014 6:00:34.38 am
131132Catherine Pinkston29F1:00.31Sat Apr 26th, 2014 6:00:34.46 am
13247David Englund46M1:00.86Sat Apr 26th, 2014 6:00:35.01 am
13336John Cushma40M1:01.23Sat Apr 26th, 2014 6:00:35.38 am
134110Doug Morris60M1:03.13Sat Apr 26th, 2014 6:00:37.28 am
13523Kimmie Brown34F1:03.64Sat Apr 26th, 2014 6:00:37.79 am
136116David Nelson26M1:04.56Sat Apr 26th, 2014 6:00:38.71 am
13729Curt Chambers53M1:05.58Sat Apr 26th, 2014 6:00:39.73 am
138117Peter Nelson50M1:06.05Sat Apr 26th, 2014 6:00:40.2 am
139101Sondra Marker50F1:06.81Sat Apr 26th, 2014 6:00:40.96 am
14010Kathy Barton57F1:07.10Sat Apr 26th, 2014 6:00:41.25 am
14111Mark Barton57M1:07.44Sat Apr 26th, 2014 6:00:41.59 am
142147mark sheeran54M1:08.17Sat Apr 26th, 2014 6:00:42.32 am
143156Phil Stapert47M1:08.59Sat Apr 26th, 2014 6:00:42.74 am
144172Kenneth Westerman55M1:08.66Sat Apr 26th, 2014 6:00:42.81 am
145143Matthew Santner37M1:08.79Sat Apr 26th, 2014 6:00:42.94 am
14627Dennis Cantrell53M1:09.89Sat Apr 26th, 2014 6:00:44.04 am
147122Terry Null55M1:10.46Sat Apr 26th, 2014 6:00:44.61 am
148136Rashad Qadir50M1:11.35Sat Apr 26th, 2014 6:00:45.5 am
149157Fred Steuber46M1:12.24Sat Apr 26th, 2014 6:00:46.39 am
15075Bruce Houston57M1:13.11Sat Apr 26th, 2014 6:00:47.26 am
1513Justin Alford40M1:13.30Sat Apr 26th, 2014 6:00:47.45 am
152114Larry Mullinnix49M1:13.65Sat Apr 26th, 2014 6:00:47.8 am
1538Brian Barger53M1:14.17Sat Apr 26th, 2014 6:00:48.32 am
154107Kirk Misaka55M1:17.58Sat Apr 26th, 2014 6:00:51.73 am
155185Glenn Kasper50M1:17.98Sat Apr 26th, 2014 6:00:52.13 am
15677David Hughes68M1:18.44Sat Apr 26th, 2014 6:00:52.59 am
15770Mike Heider54M1:19.16Sat Apr 26th, 2014 6:00:53.31 am
158173Michael Wolff41M1:29.06Sat Apr 26th, 2014 6:01:03.21 am
159121Mark Norfleet57M14:51.72Sat Apr 26th, 2014 6:14:25.87 am
160105Craig Meseko29M1:03:00.23Sat Apr 26th, 2014 7:02:34.38 am
161109Charles Moman62M1:34:48.95Sat Apr 26th, 2014 7:34:23.1 am

Event Information
Name of Event:50 Mile Trail
Distance:50 Miles
Started Date/Time:Saturday April 26th, 2014, 5:59:34.15 am
button: Assign Numbers 
2004-2019 : All rights reserved
Terms and Conditions